Simultaneous Nadir Overpasses (SNOs) Predictions

Prediction of SNOs between GOES-17 and METOP-B Satellite Orbit:

Table of predicted SNOs for the next 14.0 days since TLE Epoch: 7/25/2025
Index Date Time (GOES-17) GOES-17 Lat,Lon METOP-B Lat,Lon Distance(km) Time Diff (sec)
1 07/26/2025 03:16:55 0.02, -89.48 -0.72, -92.83 381.44 80
2 07/27/2025 02:53:37 0.03, -89.49 0.41, -87.86 185.74 80
3 07/28/2025 15:15:12 -0.02, -89.50 0.61, -92.45 335.57 80
4 07/29/2025 14:51:53 -0.03, -89.51 -0.46, -87.47 231.71 80
5 07/31/2025 03:13:36 0.02, -89.50 -0.54, -92.10 295.82 80
6 08/01/2025 02:50:18 0.03, -89.51 0.54, -87.12 271.97 80
7 08/02/2025 15:11:52 -0.01, -89.53 0.47, -91.71 248.42 80
8 08/03/2025 14:48:35 -0.03, -89.54 -0.66, -86.74 319.02 80
9 08/05/2025 03:10:17 0.01, -89.53 -0.38, -91.37 208.62 80
10 08/06/2025 02:46:59 0.02, -89.54 0.69, -86.38 359.17 80
11 08/07/2025 15:08:33 -0.01, -89.57 0.30, -90.98 160.72 80
12 08/08/2025 14:45:15 -0.02, -89.58 -0.84, -86.01 406.88 80
